Wind_Speed
29 28 29 29 29 28 27 27 26 25 26 25 24 23 22 22 22 22 22 22 22 22 22 22 22 23 23 23 23 24 24 24 25 24 24 24 24 24 24 24 23 24 24
29 29 29 29 29 29 29 28 28 27 27 27 26 25 24 24 24 24 24 24 24 24 24 24 24 24 25 25 25 25 25 25 26 26 26 25 25 25 25 26 26 26 25
31 30 30 29 29 30 30 29 29 29 28 28 27 27 27 26 26 26 26 26 26 26 25 25 25 26 26 26 26 26 26 26 27 27 27 27 27 27 27 27 27 27 27
32 32 31 31 30 30 31 31 30 30 30 29 29 29 28 28 27 27 27 27 27 27 27 27 27 27 27 27 27 28 28 28 28 28 28 29 29 29 29 29 29 29 29
33 33 33 32 31 31 31 32 32 32 32 32 31 31 31 30 29 29 29 28 28 29 29 29 29 29 29 29 29 29 29 30 30 30 30 30 30 31 30 30 31 31 31
33 33 34 34 32 32 31 31 32 34 34 34 33 33 33 32 31 31 31 30 30 30 31 31 31 31 30 30 31 31 31 31 31 31 32 32 32 32 32 32 32 32 32
34 34 34 34 33 33 33 33 32 34 35 35 35 35 34 34 33 33 33 33 33 33 32 32 32 32 32 32 32 33 33 33 32 32 33 33 33 33 33 33 33 33 33
34 35 35 36 36 36 35 35 35 34 35 36 36 36 37 36 36 35 36 35 35 35 34 34 33 33 34 34 34 34 34 34 34 34 34 34 35 35 34 35 35 35 35
37 37 37 37 38 37 37 37 37 36 36 37 37 37 37 37 37 37 36 36 36 36 36 36 36 36 36 36 36 36 36 36 36 36 35 36 37 37 37 37 37 37 36
37 37 36 37 38 38 38 38 38 38 38 38 38 38 39 39 39 39 38 39 38 38 38 39 39 38 38 38 37 37 37 38 38 38 38 38 38 38 38 38 38 38 38
38 38 37 37 37 38 39 39 40 40 39 40 40 40 40 39 40 41 40 40 40 40 40 41 41 41 40 40 39 39 39 39 40 40 40 40 40 40 40 40 40 40 41
39 39 38 38 38 38 40 40 40 41 41 41 41 41 41 41 41 41 41 41 41 42 42 42 42 42 42 42 42 41 42 42 42 42 42 41 41 41 41 42 42 43 43
40 40 40 39 39 39 40 40 41 41 42 41 41 42 42 42 42 42 43 43 42 42 43 42 42 43 43 44 44 44 44 43 43 43 43 43 43 43 43 44 44 44 44
40 41 41 41 41 41 41 42 42 42 42 42 42 42 44 44 44 43 44 44 44 43 43 44 43 44 45 45 46 45 45 45 45 45 45 45 45 45 46 46 46 46 46
41 42 43 42 43 42 42 43 42 42 43 44 44 44 44 45 45 45 46 45 45 44 44 45 46 46 46 46 46 46 46 46 46 47 47 47 47 47 47 48 47 47 48
40 42 43 43 43 42 42 43 43 43 43 44 44 45 46 46 47 46 46 46 47 47 47 47 48 48 47 46 46 47 46 47 48 48 48 48 48 49 49 50 49 50 50
40 41 42 43 42 42 43 44 44 44 45 45 45 45 46 47 47 48 48 48 48 49 49 49 49 49 48 47 47 47 48 48 49 49 49 50 50 50 51 52 52 52 52
41 42 43 44 43 43 44 45 45 45 46 46 47 46 45 46 48 48 49 49 49 50 50 50 49 49 49 48 48 48 49 49 50 51 51 51 52 53 53 53 53 53 53
42 43 44 44 43 43 45 45 45 46 46 46 46 46 47 47 48 49 49 50 51 51 51 51 51 50 50 50 50 50 49 50 51 52 53 53 53 53 54 53 54 54 54
42 43 44 44 44 45 45 45 44 45 45 46 47 47 48 48 48 49 50 51 52 51 51 51 51 51 51 51 51 51 51 51 52 53 53 54 54 53 54 55 55 54 54
42 44 44 44 45 45 45 44 45 45 46 46 47 47 48 48 49 49 50 51 52 52 51 52 52 51 51 51 52 52 53 53 54 54 54 54 54 54 55 55 54 54 54
40 42 43 43 43 44 45 45 45 46 46 46 46 47 47 48 49 50 50 51 51 51 51 52 52 52 52 52 52 53 54 54 54 54 55 54 55 55 55 55 54 54 54
38 39 40 41 43 45 45 45 46 46 46 46 46 46 46 47 49 49 49 50 50 50 51 51 52 52 53 53 53 54 55 55 55 55 55 54 55 55 55 55 54 54 54
38 38 39 41 41 41 42 43 44 45 44 45 45 45 45 46 47 48 48 49 49 50 50 51 51 52 52 52 53 54 54 55 55 55 55 54 54 53 53 54 55 54 55
38 37 38 39 40 40 40 42 42 43 44 44 44 45 46 46 48 48 48 48 49 49 50 51 51 51 51 52 53 54 55 55 54 54 55 54 53 52 51 52 54 55 55
38 38 39 40 40 40 41 43 43 43 43 43 44 45 46 47 48 49 48 48 49 49 50 50 51 51 52 53 53 54 54 54 54 53 53 53 52 53 52 52 53 55 55
Wind_Direction
244 244 243 242 242 241 242 244 246 249 251 253 254 256 260 262 266 268 270 273 275 278 281 283 284 285 287 287 288 288 288 288 288 289 289 290 290 291 291 290 291 291 291
244 245 245 244 242 242 243 245 247 249 251 253 255 256 258 262 265 267 270 272 275 277 280 282 284 285 287 287 288 288 288 288 288 287 287 288 289 289 289 289 289 290 290
243 244 246 246 244 244 245 246 248 250 251 253 254 256 258 261 264 268 270 272 274 277 280 282 284 285 286 287 287 287 288 289 288 287 287 286 286 287 287 288 289 289 289
245 245 245 247 248 248 248 248 250 251 252 253 254 256 258 261 264 267 270 272 274 277 279 281 283 285 286 286 287 287 287 288 289 288 287 286 285 286 287 287 288 288 288
247 247 246 249 250 251 251 251 251 251 252 253 255 256 258 261 264 266 269 272 274 276 279 281 283 283 284 285 286 286 287 288 287 287 287 286 286 286 287 287 287 287 287
249 250 248 249 251 251 252 255 254 252 252 253 255 258 259 261 263 265 267 270 273 276 278 280 282 283 284 285 286 286 286 287 286 286 286 285 286 286 287 288 288 288 288
249 251 250 249 252 252 253 255 256 256 254 254 256 258 260 261 263 265 266 270 273 275 278 280 281 282 283 284 285 286 285 284 285 285 285 285 286 286 287 288 288 288 288
249 249 251 250 252 253 254 256 257 258 256 255 256 258 260 261 263 266 267 270 273 275 277 279 280 281 282 283 285 285 285 284 284 284 284 285 285 285 285 286 287 287 288
249 249 250 250 251 252 253 255 256 256 257 257 257 259 260 262 265 266 269 271 273 275 278 279 281 281 281 283 284 285 284 284 283 283 284 284 284 284 284 285 285 286 287
249 249 251 250 251 252 253 255 256 256 257 258 259 261 262 263 264 266 268 271 273 276 278 280 280 281 282 282 282 283 284 284 283 283 283 283 284 284 284 284 284 285 286
250 250 251 252 253 254 255 255 256 258 259 260 261 262 263 265 265 266 268 271 273 276 278 279 279 280 281 281 281 282 283 283 282 282 282 283 283 283 283 283 284 284 285
251 251 252 253 254 255 255 256 257 258 259 260 261 262 263 265 266 267 269 271 273 275 277 279 279 279 280 280 281 281 281 281 281 281 281 282 282 282 282 283 283 283 284
251 251 251 253 254 254 255 256 257 258 259 260 261 262 263 265 266 267 270 270 272 274 276 278 280 280 279 280 280 280 281 281 280 280 280 280 280 282 282 282 283 283 283
253 252 252 253 255 255 256 257 259 260 260 261 262 263 264 265 267 268 270 271 272 274 275 276 279 280 279 279 279 279 280 280 280 280 280 281 281 280 281 282 282 283 282
253 252 252 254 255 255 256 258 260 262 263 263 264 265 265 266 267 268 270 271 273 273 274 277 279 280 279 278 278 278 278 279 280 280 280 280 281 280 280 281 281 282 282
254 254 254 256 256 256 258 259 260 262 263 264 265 265 265 266 267 269 270 271 272 274 275 276 278 278 278 277 277 277 278 279 280 280 280 280 280 280 279 279 280 280 280
255 255 256 257 257 257 258 260 261 262 263 264 265 267 267 268 269 270 270 271 273 275 276 276 276 277 277 276 277 277 278 279 279 279 280 279 279 280 280 280 280 280 280
256 257 258 259 258 259 260 261 262 264 264 265 266 268 270 270 270 271 271 272 273 275 276 276 275 275 276 276 276 277 278 279 279 279 280 280 279 280 281 281 281 281 281
258 259 260 260 259 260 261 262 264 265 266 267 268 269 271 271 272 272 273 273 274 275 275 275 275 274 275 276 277 278 278 280 280 280 280 280 281 281 281 281 281 280 280
259 260 261 260 261 262 263 264 266 267 268 269 270 271 271 272 273 274 274 274 275 276 276 275 275 275 276 276 277 278 279 280 280 281 281 282 282 282 281 281 281 281 280
261 261 262 260 261 262 264 265 267 269 270 270 271 271 272 273 274 274 275 275 275 276 275 276 276 276 277 278 278 279 280 281 281 282 282 282 283 282 282 282 281 280 279
264 263 263 262 261 263 265 267 269 269 270 271 272 272 273 275 275 275 275 276 276 276 275 276 276 277 278 279 279 280 281 281 281 282 282 283 282 282 282 281 281 280 280
267 265 264 264 264 266 267 268 270 270 271 272 272 273 275 277 278 277 277 277 276 276 275 277 278 278 278 279 280 281 281 282 282 282 282 282 282 282 282 281 281 281 281
269 267 265 264 266 267 268 269 271 271 272 272 272 274 277 278 279 279 278 277 276 276 277 278 279 280 280 280 281 282 283 283 283 282 282 282 282 282 282 282 281 282 282
269 268 267 268 268 268 270 271 272 272 273 273 273 276 279 279 279 279 279 278 278 278 278 279 280 281 282 283 283 283 283 283 283 282 281 282 281 281 281 282 282 282 282
269 269 269 269 269 270 272 273 273 274 273 275 277 279 280 279 279 280 280 280 280 280 279 279 280 281 282 283 284 284 284 283 283 282 282 282 282 282 282 282 283 283 283
Height
5798 5800 5802 5804 5807 5809 5812 5814 5816 5818 5820 5821 5823 5824 5825 5826 5827 5827 5827 5827 5827 5827 5826 5826 5825 5825 5824 5823 5823 5822 5821 5820 5819 5818 5817 5816 5815 5814 5813 5812 5811 5810 5809
5792 5794 5796 5798 5801 5803 5806 5808 5810 5812 5814 5816 5817 5818 5819 5820 5821 5822 5822 5822 5822 5822 5821 5821 5820 5819 5819 5818 5817 5816 5815 5814 5814 5813 5812 5811 5810 5809 5807 5807 5806 5805 5804
5786 5788 5790 5793 5795 5797 5799 5802 5804 5806 5808 5810 5811 5812 5813 5814 5815 5816 5816 5816 5816 5816 5816 5815 5815 5814 5813 5812 5811 5810 5809 5808 5807 5807 5806 5805 5804 5802 5801 5800 5799 5798 5797
5779 5781 5784 5786 5789 5791 5793 5795 5797 5800 5801 5803 5805 5806 5807 5808 5809 5810 5810 5810 5811 5810 5810 5809 5809 5808 5807 5806 5805 5804 5803 5802 5801 5800 5799 5798 5797 5796 5795 5794 5793 5792 5791
5772 5775 5777 5780 5782 5784 5787 5788 5790 5792 5794 5796 5798 5799 5801 5802 5803 5803 5804 5804 5804 5804 5804 5803 5802 5802 5801 5800 5798 5797 5796 5795 5794 5793 5792 5791 5790 5789 5788 5787 5786 5785 5783
5765 5768 5770 5773 5775 5778 5780 5781 5783 5785 5786 5788 5790 5792 5794 5795 5796 5796 5797 5797 5797 5797 5797 5796 5796 5795 5794 5793 5791 5790 5789 5787 5786 5785 5784 5784 5783 5782 5781 5779 5778 5777 5776
5758 5760 5763 5766 5768 5771 5773 5774 5776 5777 5779 5780 5783 5784 5786 5787 5788 5789 5789 5789 5790 5790 5789 5789 5788 5787 5786 5785 5784 5782 5781 5780 5779 5778 5777 5776 5775 5774 5773 5772 5770 5769 5768
5750 5753 5756 5758 5761 5763 5765 5767 5768 5769 5771 5773 5775 5776 5778 5779 5780 5781 5781 5782 5782 5782 5781 5781 5780 5779 5778 5777 5776 5774 5773 5772 5771 5770 5769 5768 5767 5766 5764 5763 5762 5761 5760
5742 5745 5747 5750 5752 5754 5756 5758 5760 5762 5763 5764 5766 5767 5769 5770 5771 5772 5772 5773 5773 5773 5773 5772 5771 5771 5770 5769 5767 5766 5765 5763 5762 5761 5760 5759 5758 5757 5756 5754 5753 5752 5751
5733 5736 5738 5740 5743 5745 5747 5749 5751 5753 5754 5756 5757 5758 5760 5761 5762 5764 5764 5764 5764 5764 5764 5763 5762 5761 5760 5759 5758 5757 5755 5754 5753 5752 5751 5750 5749 5748 5746 5745 5744 5743 5742
5724 5727 5730 5732 5734 5736 5738 5740 5742 5743 5745 5746 5748 5749 5750 5751 5752 5753 5755 5755 5755 5754 5754 5753 5752 5751 5750 5749 5748 5747 5746 5744 5743 5742 5741 5740 5739 5738 5737 5735 5734 5733 5732
5714 5717 5720 5723 5725 5727 5729 5731 5732 5734 5735 5736 5738 5739 5740 5741 5742 5743 5744 5745 5745 5744 5743 5742 5741 5740 5739 5738 5738 5736 5735 5733 5732 5731 5730 5730 5728 5727 5726 5725 5723 5722 5721
5705 5707 5710 5713 5715 5717 5719 5721 5722 5724 5725 5726 5727 5728 5729 5730 5731 5732 5733 5733 5734 5734 5732 5731 5730 5729 5728 5727 5726 5725 5724 5722 5721 5720 5719 5718 5717 5716 5715 5713 5712 5711 5709
5694 5697 5700 5702 5705 5707 5709 5710 5712 5713 5715 5716 5716 5717 5718 5719 5720 5720 5721 5722 5722 5722 5721 5720 5719 5718 5717 5715 5714 5713 5712 5711 5709 5708 5707 5706 5705 5704 5703 5701 5700 5699 5697
5682 5685 5689 5691 5694 5696 5698 5700 5701 5703 5704 5705 5705 5706 5707 5708 5708 5709 5709 5709 5709 5709 5710 5708 5707 5706 5704 5703 5702 5701 5700 5698 5697 5696 5695 5694 5692 5691 5690 5689 5687 5686 5684
5672 5675 5677 5680 5682 5685 5687 5689 5690 5691 5693 5694 5694 5695 5695 5696 5696 5696 5696 5696 5695 5695 5696 5696 5694 5693 5691 5690 5689 5688 5687 5686 5685 5683 5682 5681 5679 5678 5677 5675 5674 5672 5670
5662 5664 5666 5669 5671 5673 5675 5677 5679 5680 5681 5682 5682 5683 5683 5683 5683 5683 5682 5682 5682 5681 5681 5682 5680 5679 5678 5677 5676 5675 5674 5673 5671 5670 5668 5667 5665 5664 5662 5661 5660 5658 5656
5651 5653 5655 5657 5659 5662 5664 5666 5667 5668 5669 5670 5670 5670 5670 5670 5670 5669 5669 5668 5668 5667 5667 5667 5667 5665 5664 5663 5662 5661 5660 5659 5658 5656 5655 5653 5651 5649 5648 5646 5645 5643 5642
5640 5642 5644 5646 5648 5650 5652 5654 5655 5656 5656 5657 5657 5657 5657 5656 5656 5656 5655 5654 5654 5653 5652 5653 5652 5651 5650 5649 5648 5647 5646 5645 5644 5642 5640 5638 5636 5634 5633 5631 5629 5628 5627
5629 5631 5633 5635 5636 5638 5640 5641 5642 5643 5644 5644 5644 5643 5643 5643 5642 5642 5641 5640 5639 5639 5638 5638 5638 5637 5636 5635 5634 5633 5632 5631 5630 5628 5626 5624 5622 5619 5617 5616 5614 5612 5611
5618 5620 5622 5623 5625 5626 5627 5628 5629 5630 5630 5630 5630 5629 5629 5629 5628 5627 5627 5626 5625 5624 5624 5623 5623 5622 5622 5620 5619 5618 5617 5616 5615 5613 5610 5609 5607 5605 5602 5600 5598 5596 5594
5608 5609 5610 5611 5612 5613 5615 5615 5616 5616 5616 5616 5616 5616 5616 5615 5614 5613 5612 5611 5610 5609 5609 5609 5608 5608 5607 5606 5605 5603 5602 5601 5601 5599 5596 5594 5591 5589 5587 5585 5583 5580 5578
5598 5598 5598 5600 5601 5601 5602 5602 5603 5603 5603 5603 5603 5603 5602 5601 5600 5599 5598 5597 5596 5595 5594 5594 5594 5593 5592 5592 5590 5589 5587 5585 5584 5581 5579 5578 5575 5573 5571 5569 5567 5565 5563
5587 5587 5588 5589 5589 5590 5590 5590 5590 5590 5590 5590 5590 5590 5589 5588 5587 5585 5585 5583 5582 5581 5581 5580 5580 5579 5577 5575 5573 5572 5570 5568 5567 5565 5562 5562 5560 5558 5556 5554 5551 5549 5547
5576 5576 5577 5577 5578 5578 5578 5578 5578 5578 5578 5578 5578 5577 5576 5575 5574 5573 5571 5571 5569 5568 5566 5565 5564 5563 5561 5559 5557 5555 5554 5552 5551 5550 5546 5545 5544 5542 5541 5539 5536 5533 5531
5566 5566 5566 5566 5566 5566 5566 5566 5566 5566 5567 5567 5566 5565 5564 5562 5561 5558 5557 5556 5555 5554 5552 5551 5549 5548 5546 5544 5542 5539 5537 5535 5534 5534 5531 5529 5528 5525 5526 5525 5521 5518 5515